Regional Weather Roundup
Issued by NWS

Home | Current Version | Previous Version | Graphics & Text | Print | Product List | Glossary On
Versions: 1 2 3 4 5 6 7 8 9 10 11 12 13 14 15 16 17 18 19 20 21 22 23 24 25 26 27 28 29 30 31 32 33 34 35 36 37 38 39 40 41 42 43 44 45 46 47 48 49 50
000
ASUS45 KTFX 010104
RWRMT
MONTANA HOURLY WEATHER ROUNDUP
NATIONAL WEATHER SERVICE GREAT FALLS MT
704 PM MDT SUN AUG 31 2014

NOTE: "FAIR" INDICATES FEW OR NO CLOUDS BELOW 12000 FEET WITH NO
SIGNIFICANT WEATHER AND/OR OBSTRUCTIONS TO VISIBILITY.

* THESE STATIONS ARE NOT UNDER NWS QUALITY CONTROL. THEY DO NOT
   REPORT WEATHER SUCH AS PRECIPITATION OR FOG.

MTZ001>007-043-010200-
WEST OF THE DIVIDE
CITY           SKY/WX    TMP DP  RH WIND       PRES   REMARKS
KALISPELL      CLOUDY    54  52  93 SE6       29.95R
MISSOULA       MOCLDY    63  43  48 NW13      29.97R
BUTTE          PTCLDY    61  30  31 NW10      29.99R
MULLAN PASS    CLOUDY    45  39  80 VRB7G17   30.05S
* LINCOLN      N/A       61  39  44 SW4G16     N/A
* LOOKOUT PASS N/A       53  43  69 SE7        N/A
* POLSON       N/A       57  47  69 S3G9       N/A
* RONAN APT    MOCLDY    63  45  52 N/A        N/A
* SEELEY LAKE  N/A       58  45  62 NW5G13     N/A
* THOMP F APT  MOCLDY    56  46  69 SW2        N/A
$$

MTZ008-052>055-010200-
SOUTHWEST MONTANA
CITY           SKY/WX    TMP DP  RH WIND       PRES   REMARKS
BOZEMAN        MOCLDY    63  45  52 N7        29.93S
DILLON         PTCLDY    64  37  37 W5        29.94F
W YELLOWSTONE  MOCLDY    50  45  83 SW13      30.05S
* THREE FORKS  PTCLDY    63  -2   7 N/A        N/A
* BOULDER HILL N/A       58  32  37 VRB2G7     N/A
* MONIDA PASS  N/A       55  41  59 S10        N/A
* RAYNOLDS PAS N/A       54  40  59 SW8G17     N/A
* WHITEHALL    N/A       70  40  34 NW11G18    N/A
* WISE RIVER   N/A       63  33  33 W11G21     N/A
$$

MTZ009>010-012-014-046-048-049-054-010200-
EAST SLOPES AND CENTRAL MONTANA
CITY           SKY/WX    TMP DP  RH WIND       PRES   REMARKS
CUT BANK       PTCLDY    61  39  44 W20G28    29.87R
GREAT FALLS    CLOUDY    64  37  37 W12       29.88R
HELENA         MOCLDY    64  37  37 W10       29.91F
MALMSTROM AFB  MOCLDY    66  37  34 W15G25    29.89R
* CONRAD       PTCLDY    64  43  47 SW18G25    N/A
* EAST GLACIER N/A       49  43  80 NW10       N/A
* MONARCH      N/A       51  45  80 S4         N/A
* PENDROY      N/A       59  37  44 NW18G23    N/A
* ROGERS PASS  N/A       55  33  43 E6G14      N/A
* SAINT MARY   N/A       54  47  77 S8G15      N/A
* SWEET GRASS  N/A       67  31  26 W16G21     N/A
$$

MTZ011-013-016-021-035-040-045-047-050-051-010200-
NORTH CENTRAL MONTANA
CITY           SKY/WX    TMP DP  RH WIND       PRES   REMARKS
HAVRE          PTCLDY    72  37  28 NW15G22   29.78R
LEWISTOWN      PTCLDY    63  41  45 W21G26    29.90R
* CHESTER      N/A       68  32  26 NW11G17    N/A
* DENTON       N/A       65  40  40 SW21G27    N/A
* GEYSER       N/A       58  45  62 SW12       N/A
* JUDITH GAP   N/A       58  42  55 NW9G14     N/A
* LOMA         N/A       69  36  30 W16        N/A
$$

MTZ017>020-022>027-061-062-010200-
NORTHEAST MONTANA
CITY           SKY/WX    TMP DP  RH WIND       PRES   REMARKS
GLASGOW        MOCLDY    66  48  52 NW7       29.74R
GLENDIVE       PTCLDY    66  43  43 NW8       29.78S
JORDAN         PTCLDY    72  45  38 W12       29.78S
SIDNEY         MOCLDY    66  54  65 CALM      29.76R
WOLF POINT     PTCLDY    73  39  29 W13       29.72S
* BEAVER HILL  N/A       68  46  45 W11        N/A
* CIRCLE       N/A       71  44  38 W7G14      N/A
* LINDSAY DVD  N/A       67  42  40 W11        N/A
* NAVAJO       N/A       60  53  78 NE10       N/A
$$

MTZ028>042-056>058-010200-
SOUTHCENTRAL AND SOUTHEAST MONTANA
CITY           SKY/WX    TMP DP  RH WIND       PRES   REMARKS
BAKER          MOCLDY    61  54  78 S10       29.82R
BILLINGS       MOCLDY    64  46  52 S6        29.89R
LIVINGSTON     MOCLDY    55  46  72 S5        29.95F
MILES CITY     CLEAR     72  39  30 NW9       29.80R
* LAUREL APT   MOCLDY    64  46  52 NW6        N/A
* ROUNDUP APT  PTCLDY    68  39  35 N/A        N/A
* ALZADA       N/A       65  48  54 SW4        N/A
* HYSHAM       N/A       70  35  28 W7G13      N/A
* LAME DEER    N/A       65  40  40 NW6G12     N/A
* REED POINT   N/A       64  38  38 W13G18     N/A
* ROSCOE HILL  N/A       56  37  49 VRB6       N/A
$$

REGIONAL REPORTS...DAKOTAS
CITY           SKY/WX    TMP DP  RH WIND       PRES   REMARKS
WILLISTON      MOCLDY    63  54  73 N14       29.75R
DICKINSON      CLOUDY    61  54  78 SW14      29.73R
BEACH          N/A       66  50  56 W10       29.78R
CROSBY         CLEAR     57  57 100 S9        29.73S
TIOGA          MOCLDY    55  55 100 NE7       29.77F
WATFORD CITY   PTCLDY    59  57  93 NE3       29.73S
BISMARCK       LGT RAIN  64  57  78 SW7       29.71R
GRAND FORKS    MOCLDY    68  61  78 W6        29.59F
FARGO          MOCLDY    70  63  79 W7        29.60F
BUFFALO SD     CLOUDY    54  48  80 N16       29.80R
RAPID CITY     CLOUDY    61  55  81 CALM      29.83S
$$

REGIONAL REPORTS...WYOMING/IDAHO/WASHINGTON
CITY           SKY/WX    TMP DP  RH WIND       PRES   REMARKS
GILLETTE       PTCLDY    57  52  83 SW6       29.90R
SHERIDAN       MOCLDY    64  43  47 W9        29.90R
CODY           MOCLDY   N/A N/A N/A N/A        N/A
YELLOWSTONE LA MOCLDY    46  39  77 VRB3      30.14R
SALMON         PTCLDY    66  45  47 CALM      29.89F
MULLAN PASS    CLOUDY    45  39  80 VRB7G17   30.05S
SAND POINT     MOCLDY    63  50  63 E6        29.94S
SPOKANE        MOCLDY    68  37  32 W17       29.94S
$$

REGIONAL REPORTS...SASKATCHEWAN
CITY           SKY/WX    TMP DP  RH WIND       PRES   REMARKS
SWIFT CURRENT  LGT RAIN  57  50  78 SW5       29.75R

$$




USA.gov is the U.S. government's official web portal to all federal, state and local government web resources and services.